Location: �mondeville
(49.4591°N, 1.3431°W)
Time: 19:22:30
(UTC+00:00)

Cosmos 1437 Rocket - Pass Details

Date: 22 October 2019
Orbit: 507 x 562 km, 81.2° (Epoch: 20 November)

Event Time Altitude Azimuth Distance (km) Brightness Sun altitude
Rises 05:49:49 0° 219° (SW) 2,606 6.0 -8.3°
Reaches altitude 10° 05:52:10 10° 232° (SW) 1,724 4.9 -7.9°
Maximum altitude 05:55:25 27° 291° (WNW) 1,018 3.6 -7.4°
Drops below altitude 10° 05:58:41 10° 350° (N) 1,739 5.2 -6.9°
Sets 06:01:05 0° 3° (N) 2,635 6.2 -6.5°
